Regional Weather Roundup
Issued by NWS

Home | Current Version | Previous Version | Graphics & Text | Print | Product List | Glossary On
Versions: 1 2 3 4 5 6 7 8 9 10 11 12 13 14 15 16 17 18 19 20 21 22 23 24 25 26 27 28 29 30 31 32 33 34 35 36 37 38 39 40 41 42 43 44 45 46 47 48 49 50
698
ASUS43 KFSD 232310
RWRSD

WEATHER ROUNDUP FOR SOUTH DAKOTA
NATIONAL WEATHER SERVICE SIOUX FALLS SD
600 PM CDT MON APR 23 2018

NOTE: "FAIR" INDICATES FEW OR NO CLOUDS BELOW 12,000 FEET WITH NO
SIGNIFICANT WEATHER AND/OR OBSTRUCTIONS TO VISIBILITY.


SDZ001>005-009-010-012>017-240000-
NORTHWEST AND NORTH CENTRAL SOUTH DAKOTA

CITY           SKY/WX    TMP DP  RH WIND       PRES   REMARKS
BUFFALO          N/A     52  32  46 NE39G52   29.98R
FAITH            N/A     67  38  34 SE13G23   30.01F
MOBRIDGE       PTSUNNY   70  40  33 S8        30.03F
$$

SDZ012>016-024>037-041>051-057-063-072>074-240000-
SOUTHWEST AND SOUTH CENTRAL SOUTH DAKOTA

CITY           SKY/WX    TMP DP  RH WIND       PRES   REMARKS
RAPID CTY ARPT CLOUDY    65  39  38 E12       29.97F
PIERRE         MOSUNNY   70  39  32 SE15G23   30.02F
CUSTER         RAIN      39  35  86 N10G24    30.09R FOG
PHILIP         MOSUNNY   72  40  31 SE14G24   29.98S
PINE RIDGE     CLOUDY    67  39  35 S14       29.98F
SPEARFISH      LGT RAIN  45  39  81 W9G21     30.09R
WINNER         FAIR      70  37  29 SE14G23   30.03F
$$

SDZ004>011-016>023-039-040-240000-
NORTHEAST SOUTH DAKOTA

CITY           SKY/WX    TMP DP  RH WIND       PRES   REMARKS
ABERDEEN       PTSUNNY   69  36  29 E6        30.09S
WATERTOWN      MOSUNNY   65  36  34 S5        30.10F
BROOKINGS      PTSUNNY   66  37  34 N5        30.12F
SISSETON         N/A     67  42  40 NE7       30.09F
$$

SDZ017-020-022-023-036>040-048>070-240000-
SOUTHEAST SOUTH DAKOTA

CITY           SKY/WX    TMP DP  RH WIND       PRES   REMARKS
SIOUX FALLS    MOSUNNY   68  35  29 E6        30.10F
HURON          PTSUNNY   68  40  35 S10       30.08S
CHAMBERLAIN    PTSUNNY   68  40  36 SE12      30.05F
MITCHELL       PTSUNNY   68  42  38 E10       30.08F
YANKTON        SUNNY     70  36  28 NE9       30.08F
$$

ABBREVIATIONS USED IN REMARKS
   TC - TEMPERATURE IN CELSIUS
  WCI - WIND CHILL INDEX
   HX - HEAT INDEX
  VSB - VISIBILITY





USA.gov is the U.S. government's official web portal to all federal, state and local government web resources and services.